This is the latest recevied weather packets stored in our database for station/object RN1M-13. If no packets are shown the sender has not sent any weather packets the latest 10 day(s).
| Time | Temp. | Humidity | Pressure | Rain* | Wind** | Luminosity | Snow |
|---|---|---|---|---|---|---|---|
| 1787904379 | 19.44° C | 100% | 1028.9 hPa | - | - | - | - |
| 1787903472 | 19.44° C | 100% | 1029 hPa | - | - | - | - |
| 1787902572 | 19.44° C | 100% | 1027 hPa | - | - | - | - |
| 1787901679 | 20° C | 100% | 1026.4 hPa | - | - | - | - |
| 1787900772 | 21.11° C | 100% | 1026.2 hPa | - | - | - | - |
| 1787899872 | 21.11° C | 100% | 1025.7 hPa | - | - | - | - |
| 1787898972 | 23.33° C | 100% | 1027.6 hPa | - | - | - | - |
| 1787898072 | 20° C | 100% | 1031.5 hPa | - | - | - | - |
| 1787897172 | 18.89° C | 100% | 1031.4 hPa | - | - | - | - |
| 1787896274 | 18.33° C | 100% | 1030.9 hPa | - | - | - | - |
| 1787895376 | 18.33° C | 100% | 1031.7 hPa | - | - | - | - |
| 1787894476 | 18.33° C | 100% | 1031.4 hPa | - | - | - | - |
| 1787893583 | 18.33° C | 100% | 1032 hPa | - | - | - | - |
| 1787892676 | 17.78° C | 100% | 1033.5 hPa | - | - | - | - |
| 1787891783 | 16.67° C | 100% | 1033.2 hPa | - | - | - | - |
| 1787890876 | 17.22° C | 100% | 1032.7 hPa | - | - | - | - |
| 1787889976 | 17.78° C | 100% | 1032.6 hPa | - | - | - | - |
| 1787889076 | 17.22° C | 100% | 1033.7 hPa | - | - | - | - |
| 1787888176 | 16.11° C | 100% | 1033.8 hPa | - | - | - | - |
| 1787887276 | 16.67° C | 100% | 1031.3 hPa | - | - | - | - |
| 1787886376 | 16.67° C | 100% | 1031.9 hPa | - | - | - | - |
| 1787885477 | 16.11° C | 100% | 1031 hPa | - | - | - | - |
| 1787884586 | 16.67° C | 100% | 1031.1 hPa | - | - | - | - |
| 1787883679 | 16.11° C | 100% | 1031.6 hPa | - | - | - | - |
| 1787882779 | 16.67° C | 100% | 1032.1 hPa | - | - | - | - |
* Rain since midnight (hover to see other rain measurements)
** Current wind speed in m/s (hover to see current wind gust speed)